NJ3J Weather Reports


Display with metric or nautical units.
time (UTC)temp
F
wind
direction
speed
MPH
gust
MPH
rain 1hr
in
rain 24hr
in
rain mn
in
humidity
%
barometer
mb
20260510201517 80 339 2.0 7.0 0.00 0.00 0.00 53 1016.0
20260510201018 79 312 2.0 5.0 0.00 0.00 0.00 54 1016.0
20260510200517 79 291 2.0 5.0 0.00 0.00 0.00 53 1016.1
20260510200018 79 6 2.0 5.0 0.00 0.00 0.00 55 1016.2
20260510195518 79 320 3.0 10.0 0.00 0.00 0.00 55 1016.1
20260510195038 79 311 2.0 8.0 0.00 0.00 0.00 55 1016.2
20260510194518 79 9 2.0 5.0 0.00 0.00 0.00 55 1016.3
20260510194018 79 66 2.0 5.0 0.00 0.00 0.00 55 1016.2
20260510193518 79 310 2.0 5.0 0.00 0.00 0.00 56 1016.2
20260510193015 79 37 2.0 7.0 0.00 0.00 0.00 54 1016.3
20260510192516 79 78 2.0 4.0 0.00 0.00 0.00 53 1016.2
20260510192015 79 336 2.0 6.0 0.00 0.00 0.00 55 1016.1
20260510191515 79 312 1.0 4.0 0.00 0.00 0.00 53 1016.2
20260510191015 80 14 2.0 5.0 0.00 0.00 0.00 53 1016.2
20260510190516 80 348 2.0 4.0 0.00 0.00 0.00 52 1016.2
20260510190016 79 327 2.0 5.0 0.00 0.00 0.00 54 1016.2
20260510185516 79 351 2.0 5.0 0.00 0.00 0.00 53 1016.1
20260510185016 79 351 1.0 3.0 0.00 0.00 0.00 53 1016.1
20260510184516 79 263 2.0 5.0 0.00 0.00 0.00 55 1016.1
20260510184036 78 1 2.0 6.0 0.00 0.00 0.00 55 1016.0
20260510183516 78 19 2.0 4.0 0.00 0.00 0.00 56 1016.1
20260510183016 78 64 2.0 6.0 0.00 0.00 0.00 55 1016.0
20260510182516 77 22 2.0 5.0 0.00 0.00 0.00 56 1016.1
20260510182016 77 29 2.0 6.0 0.00 0.00 0.00 56 1016.3
20260510181517 78 327 2.0 6.0 0.00 0.00 0.00 56 1016.2
20260510181037 78 344 2.0 5.0 0.00 0.00 0.00 56 1016.1
20260510180517 78 296 3.0 6.0 0.00 0.00 0.00 56 1016.1
20260510180037 77 322 1.0 3.0 0.00 0.00 0.00 55 1016.1
20260510175517 77 276 3.0 6.0 0.00 0.00 0.00 55 1016.2
20260510175017 77 49 2.0 5.0 0.00 0.00 0.00 56 1016.2
20260510174517 77 351 2.0 5.0 0.00 0.00 0.00 56 1016.2
20260510174017 77 28 2.0 4.0 0.00 0.00 0.00 57 1016.3
20260510173537 77 82 2.0 6.0 0.00 0.00 0.00 57 1016.3
20260510173017 77 55 3.0 6.0 0.00 0.00 0.00 57 1016.4
20260510172517 77 348 3.0 6.0 0.00 0.00 0.00 58 1016.5
20260510172018 76 13 2.0 5.0 0.00 0.00 0.00 58 1016.6
20260510171538 77 298 3.0 7.0 0.00 0.00 0.00 58 1016.5
20260510171018 77 306 2.0 6.0 0.00 0.00 0.00 58 1016.6
20260510170518 77 12 2.0 5.0 0.00 0.00 0.00 59 1016.6
20260510170017 77 311 2.0 4.0 0.00 0.00 0.00 60 1016.6
20260510165518 77 3 2.0 6.0 0.00 0.00 0.00 60 1016.6
20260510165018 77 24 2.0 5.0 0.00 0.00 0.00 60 1016.6
20260510164518 77 18 2.0 5.0 0.00 0.00 0.00 60 1016.6
20260510164018 77 332 2.0 5.0 0.00 0.00 0.00 60 1016.5
20260510163518 77 349 3.0 6.0 0.00 0.00 0.00 59 1016.5
20260510163018 77 23 2.0 5.0 0.00 0.00 0.00 59 1016.3
20260510162518 77 3 2.0 5.0 0.00 0.00 0.00 59 1016.4
20260510162018 78 314 2.0 6.0 0.00 0.00 0.00 58 1016.4
20260510161515 78 301 2.0 4.0 0.00 0.00 0.00 55 1016.4
20260510161015 79 337 2.0 4.0 0.00 0.00 0.00 52 1016.3
20260510160516 78 332 2.0 4.0 0.00 0.00 0.00 51 1016.1
20260510160016 78 257 3.0 9.0 0.00 0.00 0.00 50 1016.1
20260510155516 78 263 3.0 8.0 0.00 0.00 0.00 50 1016.1
20260510155016 78 278 2.0 5.0 0.00 0.00 0.00 50 1016.0
20260510154516 78 323 3.0 7.0 0.00 0.00 0.00 50 1015.9
20260510154056 77 355 2.0 5.0 0.00 0.00 0.00 52 1015.9
20260510153516 77 254 4.0 12.0 0.00 0.00 0.00 51 1015.9
20260510153016 77 267 4.0 8.0 0.00 0.00 0.00 51 1015.8
20260510152517 77 274 4.0 8.0 0.00 0.00 0.00 51 1015.8
20260510152017 77 268 4.0 8.0 0.00 0.00 0.00 50 1015.7
20260510151516 77 269 3.0 6.0 0.00 0.00 0.00 50 1015.7
20260510151017 77 263 3.0 8.0 0.00 0.00 0.00 50 1015.7
20260510150517 77 273 3.0 6.0 0.00 0.00 0.00 50 1015.5
20260510150017 77 260 2.0 6.0 0.00 0.00 0.00 50 1015.5
20260510145517 77 259 3.0 6.0 0.00 0.00 0.00 50 1015.5
20260510145017 76 246 4.0 7.0 0.00 0.00 0.00 50 1015.4
20260510144517 76 262 2.0 5.0 0.00 0.00 0.00 53 1015.3
20260510144057 76 228 2.0 5.0 0.00 0.00 0.00 53 1015.3
20260510143517 75 200 2.0 4.0 0.00 0.00 0.00 55 1015.2
20260510143017 75 261 2.0 4.0 0.00 0.00 0.00 55 1015.3
20260510142517 74 262 2.0 6.0 0.00 0.00 0.00 56 1015.3
20260510142038 74 243 2.0 4.0 0.00 0.00 0.00 56 1015.3
20260510141518 74 215 1.0 3.0 0.00 0.00 0.00 59 1015.3
20260510141018 73 246 2.0 4.0 0.00 0.00 0.00 59 1015.2
20260510140517 73 197 1.0 3.0 0.00 0.00 0.00 60 1015.2
20260510140038 72 210 1.0 4.0 0.00 0.00 0.00 63 1015.3
20260510135518 72 248 2.0 5.0 0.00 0.00 0.00 63 1015.4
20260510135018 71 173 1.0 5.0 0.00 0.00 0.00 65 1015.4
20260510134518 70 216 1.0 4.0 0.00 0.00 0.00 66 1015.5
20260510134018 70 251 2.0 4.0 0.00 0.00 0.00 66 1015.5
20260510133518 69 152 1.0 3.0 0.00 0.00 0.00 67 1015.4
20260510133018 68 146 1.0 2.0 0.00 0.00 0.00 69 1015.4
20260510132515 67 149 1.0 3.0 0.00 0.00 0.00 69 1015.4
20260510132018 67 145 1.0 2.0 0.00 0.00 0.00 70 1015.3
20260510131516 66 176 1.0 3.0 0.00 0.00 0.00 71 1015.3
20260510131015 65 146 1.0 3.0 0.00 0.00 0.00 72 1015.3
20260510130516 65 146 1.0 2.0 0.00 0.00 0.00 72 1015.3
20260510130016 64 146 1.0 4.0 0.00 0.00 0.00 72 1015.3
20260510125516 64 169 1.0 2.0 0.00 0.00 0.00 72 1015.3
20260510125018 63 149 1.0 2.0 0.00 0.00 0.00 73 1015.3
20260510124516 62 152 1.0 2.0 0.00 0.00 0.00 74 1015.3
20260510124016 62 154 1.0 2.0 0.00 0.00 0.00 75 1015.3
20260510123516 61 157 1.0 2.0 0.00 0.00 0.00 75 1015.3
20260510123016 61 158 1.0 3.0 0.00 0.00 0.00 76 1015.3
20260510122516 60 159 1.0 3.0 0.00 0.00 0.00 77 1015.3
20260510122037 60 195 1.0 2.0 0.00 0.00 0.00 77 1015.2
20260510121517 59 159 1.0 2.0 0.00 0.00 0.00 78 1015.1
20260510121016 58 173 1.0 2.0 0.00 0.00 0.00 80 1015.0
20260510120517 57 157 1.0 2.0 0.00 0.00 0.00 81 1015.1
20260510120016 56 167 0.0 2.0 0.00 0.00 0.00 83 1015.1
20260510115517 56 172 0.0 2.0 0.00 0.00 0.00 84 1015.0
20260510115037 56 156 1.0 3.0 0.00 0.00 0.00 85 1014.9
20260510114537 55 170 1.0 3.0 0.00 0.00 0.00 85 1014.8
20260510114017 55 156 1.0 2.0 0.00 0.00 0.00 85 1014.7
20260510113517 54 161 1.0 3.0 0.00 0.00 0.00 85 1014.7
20260510113017 54 146 0.0 1.0 0.00 0.00 0.00 87 1014.6
20260510112537 54 132 0.0 1.0 0.00 0.00 0.00 87 1014.6
20260510112017 54 167 0.0 2.0 0.00 0.00 0.00 87 1014.7
20260510111517 54 196 0.0 1.0 0.00 0.00 0.00 85 1014.6
20260510111017 55 153 1.0 2.0 0.00 0.00 0.00 84 1014.5
20260510110517 55 147 1.0 3.0 0.00 0.00 0.00 83 1014.5
20260510110018 55 153 1.0 4.0 0.00 0.00 0.00 83 1014.6
20260510105518 55 146 1.0 3.0 0.00 0.00 0.00 83 1014.6
20260510105018 55 148 0.0 2.0 0.00 0.00 0.00 83 1014.6
20260510104537 56 160 1.0 3.0 0.00 0.00 0.00 82 1014.5
20260510104058 57 186 0.0 2.0 0.00 0.00 0.00 80 1014.5
20260510103518 57 155 2.0 4.0 0.00 0.00 0.00 79 1014.3
20260510103019 57 66 0.0 1.0 0.00 0.00 0.00 78 1014.5
20260510102518 58 153 1.0 3.0 0.00 0.00 0.00 77 1014.3
20260510102019 57 119 1.0 3.0 0.00 0.00 0.00 78 1014.4
20260510101518 57 52 1.0 3.0 0.00 0.00 0.00 78 1014.2
20260510101018 57 161 1.0 2.0 0.00 0.00 0.00 77 1014.1
20260510100516 55 109 1.0 6.0 0.00 0.00 0.00 78 1014.1
20260510100056 53 9 2.0 7.0 0.00 0.00 0.00 86 1014.3
20260510095515 53 332 2.0 4.0 0.00 0.00 0.00 90 1014.1
20260510095016 53 354 0.0 1.0 0.00 0.00 0.00 89 1013.9
20260510094516 53 186 0.0 2.0 0.00 0.00 0.00 89 1013.8
20260510094036 53 307 0.0 1.0 0.00 0.00 0.00 88 1013.7
20260510093516 53 159 0.0 2.0 0.00 0.00 0.00 88 1013.6
20260510093016 53 156 0.0 2.0 0.00 0.00 0.00 89 1013.7
20260510092516 53 140 0.0 1.0 0.00 0.00 0.00 88 1013.7
20260510092036 54 204 0.0 1.0 0.00 0.00 0.00 87 1013.7
20260510091516 54 237 0.0 1.0 0.00 0.00 0.00 87 1013.6
20260510091016 54 217 0.0 2.0 0.00 0.00 0.00 86 1013.6
20260510090517 55 199 0.0 2.0 0.00 0.00 0.00 86 1013.5
20260510090016 55 251 0.0 2.0 0.00 0.00 0.00 86 1013.4
20260510085557 55 255 1.0 2.0 0.00 0.00 0.00 86 1013.4
20260510085017 55 167 0.0 2.0 0.00 0.00 0.00 85 1013.3
20260510084517 54 162 1.0 3.0 0.00 0.00 0.00 86 1013.2
20260510084017 54 201 0.0 1.0 0.00 0.00 0.00 87 1013.2
20260510083517 55 160 0.0 1.0 0.00 0.00 0.00 86 1013.1
20260510083017 55 256 0.0 1.0 0.00 0.00 0.00 86 1013.1
20260510082537 55 139 0.0 1.0 0.00 0.00 0.00 86 1013.1
20260510082017 55 192 0.0 2.0 0.00 0.00 0.00 85 1013.1
20260510081517 55 170 0.0 1.0 0.00 0.00 0.00 84 1012.9
20260510081018 55 138 1.0 2.0 0.00 0.00 0.00 86 1012.9
20260510080538 55 171 0.0 2.0 0.00 0.00 0.00 87 1013.0
20260510080037 55 158 0.0 2.0 0.00 0.00 0.00 86 1012.9
20260510075518 55 162 0.0 2.0 0.00 0.00 0.00 86 1012.9
20260510075018 56 136 0.0 2.0 0.00 0.00 0.00 86 1012.9
20260510074518 56 148 0.0 2.0 0.00 0.00 0.00 85 1013.0
20260510074018 56 193 0.0 2.0 0.00 0.00 0.00 85 1013.0
20260510073518 56 171 0.0 2.0 0.00 0.00 0.00 84 1012.9
20260510073017 55 176 1.0 3.0 0.00 0.00 0.00 83 1012.9
20260510072518 55 160 0.0 2.0 0.00 0.00 0.00 84 1012.9
20260510072038 55 163 1.0 3.0 0.00 0.00 0.00 86 1013.1
20260510071518 55 154 0.0 1.0 0.00 0.00 0.00 86 1013.1
20260510071036 55 200 0.0 1.0 0.00 0.00 0.00 86 1013.0
20260510070518 55 145 0.0 1.0 0.00 0.00 0.00 86 1012.9
20260510070015 55 151 0.0 2.0 0.00 0.00 0.00 85 1012.9
20260510065538 56 155 0.0 1.0 0.00 0.00 0.00 85 1012.8
20260510065036 56 152 0.0 1.0 0.00 0.00 0.00 85 1012.8
20260510064516 56 236 0.0 1.0 0.00 0.00 0.00 84 1012.8
20260510064015 56 163 0.0 2.0 0.00 0.00 0.00 83 1012.7
20260510063516 56 146 0.0 2.0 0.00 0.00 0.00 84 1012.7
20260510063016 56 147 0.0 2.0 0.00 0.00 0.00 84 1012.8
20260510062516 56 140 0.0 2.0 0.00 0.00 0.00 84 1012.8
20260510062016 57 170 0.0 2.0 0.00 0.00 0.00 84 1012.9
20260510061516 57 179 0.0 2.0 0.00 0.00 0.00 83 1012.9
20260510061016 57 164 0.0 2.0 0.00 0.00 0.00 83 1012.9
20260510060516 57 151 0.0 2.0 0.00 0.00 0.00 83 1012.9
20260510060016 57 151 0.0 2.0 0.00 0.00 0.00 82 1012.9
20260510055516 57 197 0.0 1.0 0.00 0.00 0.00 82 1012.8
20260510055017 57 194 0.0 1.0 0.00 0.00 0.00 83 1012.8
20260510054517 58 138 0.0 2.0 0.00 0.00 0.00 82 1012.8
20260510054017 58 145 0.0 1.0 0.00 0.00 0.00 81 1012.8
20260510053537 58 156 0.0 1.0 0.00 0.00 0.00 81 1012.8
20260510053017 58 175 0.0 1.0 0.00 0.00 0.00 80 1012.7
20260510052537 58 158 1.0 2.0 0.00 0.00 0.00 80 1012.7
20260510052017 58 93 0.0 2.0 0.00 0.00 0.00 80 1012.6
20260510051517 58 104 0.0 1.0 0.00 0.00 0.00 81 1012.6
20260510051017 58 99 0.0 1.0 0.00 0.00 0.00 81 1012.6
20260510050537 58 183 0.0 2.0 0.00 0.00 0.00 81 1012.6
20260510050018 58 158 0.0 2.0 0.00 0.00 0.00 82 1012.5
20260510045517 58 162 0.0 1.0 0.00 0.00 0.00 83 1012.5
20260510045017 58 143 0.0 1.0 0.00 0.00 0.00 82 1012.5
20260510044538 58 120 0.0 1.0 0.00 0.00 0.00 82 1012.5
20260510044018 58 101 0.0 2.0 0.00 0.00 0.00 81 1012.5
20260510043518 58 76 0.0 1.0 0.00 0.00 0.00 81 1012.6
20260510043018 57 91 0.0 1.0 0.00 0.00 0.00 81 1012.6
20260510042518 57 98 0.0 1.0 0.00 0.00 0.00 81 1012.6
20260510042018 57 108 0.0 2.0 0.00 0.00 0.00 81 1012.6
20260510041518 57 123 0.0 1.0 0.00 0.00 0.00 82 1012.6
20260510041038 57 91 0.0 1.0 0.00 0.00 0.00 84 1012.6
20260510040538 58 136 0.0 1.0 0.00 0.00 0.00 83 1012.7
20260510040018 58 140 0.0 1.0 0.00 0.00 0.00 83 1012.7
20260510035538 58 183 0.0 1.0 0.00 0.00 0.00 83 1012.7
20260510035035 58 160 0.0 1.0 0.00 0.00 0.00 83 1012.8
20260510034516 58 143 0.0 1.0 0.00 0.00 0.00 82 1012.8
20260510034016 59 183 0.0 1.0 0.00 0.00 0.00 82 1012.8
20260510033516 59 238 0.0 1.0 0.00 0.00 0.00 82 1012.8
20260510033016 59 144 0.0 1.0 0.00 0.00 0.00 81 1012.8
20260510032516 59 152 0.0 1.0 0.00 0.00 0.00 80 1012.8
20260510032016 59 178 0.0 2.0 0.00 0.00 0.00 79 1012.8
20260510031516 60 195 0.0 1.0 0.00 0.00 0.00 79 1012.8
20260510031016 60 131 0.0 2.0 0.00 0.00 0.00 78 1012.8
20260510030517 60 152 1.0 1.0 0.00 0.00 0.00 78 1012.7
20260510030016 60 126 0.0 2.0 0.00 0.00 0.00 78 1012.7
20260510025516 61 183 0.0 1.0 0.00 0.00 0.00 77 1012.7
20260510025036 61 138 0.0 2.0 0.00 0.00 0.00 77 1012.6
20260510024516 61 146 1.0 2.0 0.00 0.00 0.00 76 1012.6
20260510024017 61 153 0.0 2.0 0.00 0.00 0.00 75 1012.6
20260510023538 62 150 0.0 2.0 0.00 0.00 0.00 74 1012.5
20260510023017 62 169 0.0 2.0 0.00 0.00 0.00 73 1012.5
20260510022517 62 227 0.0 2.0 0.00 0.00 0.00 73 1012.4
20260510022017 62 180 0.0 1.0 0.00 0.00 0.00 73 1012.4
20260510021517 62 138 0.0 1.0 0.00 0.00 0.00 72 1012.4
20260510021037 63 142 0.0 2.0 0.00 0.00 0.00 71 1012.4
20260510020517 63 134 0.0 1.0 0.00 0.00 0.00 69 1012.3
20260510020017 64 126 0.0 1.0 0.00 0.00 0.00 69 1012.2
20260510015557 64 88 0.0 1.0 0.00 0.00 0.00 68 1012.1
20260510015017 64 121 0.0 1.0 0.00 0.00 0.00 67 1012.0
20260510014558 65 119 0.0 1.0 0.00 0.00 0.00 66 1011.9
20260510014017 65 89 0.0 1.0 0.00 0.00 0.00 66 1011.8
20260510013558 66 95 0.0 1.0 0.00 0.00 0.00 65 1011.8
20260510013018 67 109 0.0 1.0 0.00 0.00 0.00 64 1011.8
20260510012518 67 115 0.0 2.0 0.00 0.00 0.00 63 1011.7
20260510012018 68 132 0.0 1.0 0.00 0.00 0.00 62 1011.6
20260510011518 69 144 0.0 2.0 0.00 0.00 0.00 61 1011.6
20260510011018 69 123 0.0 1.0 0.00 0.00 0.00 59 1011.5
20260510010518 70 102 0.0 0.0 0.00 0.00 0.00 58 1011.4
20260510010019 71 254 0.0 1.0 0.00 0.00 0.00 56 1011.4
20260510005518 72 110 0.0 1.0 0.00 0.00 0.00 54 1011.3
20260510005018 73 157 0.0 1.0 0.00 0.00 0.00 52 1011.3
20260510004515 74 118 0.0 2.0 0.00 0.00 0.00 50 1011.2
20260510004016 76 125 0.0 1.0 0.00 0.00 0.00 49 1011.2
20260510003516 77 123 0.0 1.0 0.00 0.00 0.00 47 1011.1
20260510003016 78 143 0.0 1.0 0.00 0.00 0.00 45 1011.0
20260510002516 78 158 0.0 1.0 0.00 0.00 0.00 43 1010.9
20260510002016 79 176 0.0 2.0 0.00 0.00 0.00 42 1010.8
20260510001516 79 176 0.0 1.0 0.00 0.00 0.00 42 1010.8
20260510001016 79 200 1.0 3.0 0.00 0.00 0.00 41 1010.7
20260510000517 80 187 1.0 3.0 0.00 0.00 0.00 40 1010.7
20260510000016 80 200 1.0 2.0 0.00 0.00 0.00 40 1010.6
20260509235522 80 208 1.0 4.0 0.00 0.00 0.00 39 1010.5
20260509235017 80 205 1.0 3.0 0.00 0.00 0.00 39 1010.4
20260509234517 80 211 1.0 3.0 0.00 0.00 0.00 39 1010.3
20260509234017 80 195 1.0 3.0 0.00 0.00 0.00 38 1010.3
20260509233517 81 259 1.0 4.0 0.00 0.00 0.00 37 1010.3
20260509233016 81 274 1.0 2.0 0.00 0.00 0.00 37 1010.4
20260509232517 80 218 1.0 3.0 0.00 0.00 0.00 37 1010.4
20260509232037 80 237 2.0 4.0 0.00 0.00 0.00 38 1010.4
20260509231537 81 253 2.0 4.0 0.00 0.00 0.00 38 1010.3
20260509231017 81 257 3.0 6.0 0.00 0.00 0.00 38 1010.3
20260509230518 82 232 2.0 4.0 0.00 0.00 0.00 37 1010.3
20260509230017 82 154 1.0 4.0 0.00 0.00 0.00 36 1010.3
20260509225518 81 162 1.0 3.0 0.00 0.00 0.00 36 1010.3
20260509225018 81 237 1.0 4.0 0.00 0.00 0.00 37 1010.3
20260509224517 81 264 2.0 4.0 0.00 0.00 0.00 36 1010.3
20260509224018 81 250 2.0 4.0 0.00 0.00 0.00 35 1010.3
20260509223518 81 264 1.0 4.0 0.00 0.00 0.00 36 1010.4
20260509223018 81 250 4.0 7.0 0.00 0.00 0.00 36 1010.3
20260509222518 82 270 2.0 5.0 0.00 0.00 0.00 36 1010.3
20260509222018 82 219 1.0 3.0 0.00 0.00 0.00 37 1010.3
20260509221518 82 275 2.0 4.0 0.00 0.00 0.00 35 1010.2
20260509221018 81 216 1.0 4.0 0.00 0.00 0.00 33 1010.2
20260509220518 81 243 2.0 4.0 0.00 0.00 0.00 33 1010.2
20260509220036 82 292 3.0 6.0 0.00 0.00 0.00 35 1010.1
20260509215516 82 273 1.0 5.0 0.00 0.00 0.00 32 1010.1
20260509215016 81 183 2.0 4.0 0.00 0.00 0.00 32 1010.1
20260509214516 81 250 2.0 5.0 0.00 0.00 0.00 33 1010.0
20260509214036 81 249 3.0 6.0 0.00 0.00 0.00 35 1010.0
20260509213516 81 66 2.0 3.0 0.00 0.00 0.00 37 1010.0
20260509213016 81 222 2.0 5.0 0.00 0.00 0.00 35 1010.0
20260509212516 81 265 2.0 5.0 0.00 0.00 0.00 36 1009.9
20260509212016 81 271 1.0 3.0 0.00 0.00 0.00 37 1009.9
20260509211516 80 276 2.0 4.0 0.00 0.00 0.00 37 1009.9
20260509211016 80 287 2.0 5.0 0.00 0.00 0.00 38 1009.9
20260509210516 81 256 3.0 6.0 0.00 0.00 0.00 40 1009.9
20260509210017 80 337 1.0 4.0 0.00 0.00 0.00 40 1009.9
20260509205537 80 31 2.0 4.0 0.00 0.00 0.00 40 1009.9
20260509205017 80 108 2.0 5.0 0.00 0.00 0.00 41 1009.9
20260509204517 80 335 2.0 4.0 0.00 0.00 0.00 41 1010.0
20260509204017 80 28 2.0 6.0 0.00 0.00 0.00 40 1010.0
20260509203557 80 87 2.0 3.0 0.00 0.00 0.00 40 1010.0
20260509203017 80 303 1.0 3.0 0.00 0.00 0.00 41 1010.0
20260509202557 79 281 2.0 5.0 0.00 0.00 0.00 41 1010.1
20260509202017 79 294 2.0 7.0 0.00 0.00 0.00 41 1010.2